LiveATC.Net - Listen to live air traffic control over the Internet!


ICAO: KSLE  IATA: SLE   Airport: McNary Field Airport
City: Salem   State/Province: Oregon
Country: United States   Continent: North America
KSLE METAR Weather: KSLE 281156Z AUTO 19011KT 8SM RA SCT043 OVC055 12/10 A3004 RMK AO2 SLP171 P0003 60014 70091 T01220100 10128 20117 51010
KSLE Flight Activity (FlightAware)
KSLE Airport Info   (iFlightPlanner)
KSLE VFR Sectional Chart   (iFlightPlanner) 
KSLE IFR Low Chart   (iFlightPlanner) 

KSLE Gnd/Twr
Feed Status: DOWN
Last heard on: 2021-09-23 22:16:40 (4 days 14 hours 22 minutes ago)
Archive Access: KSLE Gnd/Twr
FacilityFrequency
Salem Ground121.900
Salem Tower119.100

NOTICE

Unauthorized use prohibited. See LiveATC.net Terms of Service


Airport/ARTCC Code
Frequency Search
(e.g., 124.400, 128.75)
Site-wide search
 


Browse Feeds
Top 50 Feeds
HF Oceanic Feeds
Coverage Map
Bad Weather Areas

LiveATC FAQ
Offer LiveATC feed
Contact LiveATC.net
Press Inquiries

LiveATC on iPhone
LiveATC on Android

Windows Phone
Windows 8/10

LiveATC Mobile
(Mobile browser)

ATC Audio Archives
Interesting Recordings

LiveATC Forums


Home Page
About LiveATC.net
Make a Donation
Terms of Use
Privacy Policy

Canadian Air Freqs

AIRMETs/SIGMETs

FAA Airport Status
NAS Status
Arrival Demand


Server Software By:
Icecast.org
Liquidsoap